Time,TemperatureF,DewpointF,PressureIn,WindDirection,WindDirectionDegrees,WindSpeedMPH,WindSpeedGustMPH,Humidity,HourlyPrecipIn,Conditions,Clouds,dailyrainin,SoftwareType,DateUTC
2013-07-10 00:00:00,81.9,72.0,29.99,South,186,0.0,-999.0,71,-99.99,,,0.00,weatherlink.com 1.10,2013-07-10 05:00:00,
2013-07-10 00:15:00,81.4,72.0,30.00,WSW,242,0.0,-999.0,73,-99.99,,,0.00,weatherlink.com 1.10,2013-07-10 05:15:00,
2013-07-10 00:30:00,80.9,72.0,30.00,West,262,0.0,-999.0,75,-99.99,,,0.00,weatherlink.com 1.10,2013-07-10 05:30:00,
2013-07-10 00:45:00,80.5,72.0,30.00,SW,236,0.0,-999.0,76,-99.99,,,0.00,weatherlink.com 1.10,2013-07-10 05:45:00,
2013-07-10 01:09:00,79.8,72.0,30.00,WSW,244,0.0,-999.0,77,-99.99,,,0.00,weatherlink.com 1.10,2013-07-10 06:09:00,
2013-07-10 01:15:00,79.6,72.0,30.00,WSW,244,0.0,-999.0,78,-99.99,,,0.00,weatherlink.com 1.10,2013-07-10 06:15:00,
2013-07-10 01:31:00,79.1,72.0,30.01,WSW,244,0.0,-999.0,79,-99.99,,,0.00,weatherlink.com 1.10,2013-07-10 06:31:00,
2013-07-10 01:46:00,78.7,72.0,30.01,WSW,244,0.0,-999.0,80,-99.99,,,0.00,weatherlink.com 1.10,2013-07-10 06:46:00,
2013-07-10 02:16:00,77.6,72.0,30.00,WSW,244,0.0,-999.0,82,-99.99,,,0.00,weatherlink.com 1.10,2013-07-10 07:16:00,
2013-07-10 02:31:00,77.2,71.0,29.99,WSW,244,0.0,-999.0,82,-99.99,,,0.00,weatherlink.com 1.10,2013-07-10 07:31:00,
2013-07-10 02:46:00,76.9,72.0,29.99,WSW,244,0.0,-999.0,84,-99.99,,,0.00,weatherlink.com 1.10,2013-07-10 07:46:00,
2013-07-10 03:01:00,76.5,72.0,30.00,WSW,244,0.0,-999.0,85,-99.99,,,0.00,weatherlink.com 1.10,2013-07-10 08:01:00,
2013-07-10 03:16:00,76.4,72.0,29.99,WSW,244,0.0,-999.0,86,-99.99,,,0.00,weatherlink.com 1.10,2013-07-10 08:16:00,
2013-07-10 03:31:00,76.3,72.0,29.99,WSW,244,0.0,-999.0,87,-99.99,,,0.00,weatherlink.com 1.10,2013-07-10 08:31:00,
2013-07-10 03:46:00,76.5,73.0,29.99,WSW,244,0.0,-999.0,88,-99.99,,,0.00,weatherlink.com 1.10,2013-07-10 08:46:00,
2013-07-10 04:01:00,76.5,73.0,29.99,WSW,244,0.0,-999.0,88,-99.99,,,0.00,weatherlink.com 1.10,2013-07-10 09:01:00,
2013-07-10 04:16:00,76.4,73.0,29.99,WSW,244,0.0,-999.0,88,-99.99,,,0.00,weatherlink.com 1.10,2013-07-10 09:16:00,
2013-07-10 04:32:00,76.2,73.0,29.99,WSW,244,0.0,-999.0,88,-99.99,,,0.00,weatherlink.com 1.10,2013-07-10 09:32:00,
2013-07-10 04:47:00,75.9,73.0,29.99,WSW,244,0.0,-999.0,89,-99.99,,,0.00,weatherlink.com 1.10,2013-07-10 09:47:00,
2013-07-10 05:02:00,75.5,72.0,30.00,WSW,244,0.0,-999.0,89,-99.99,,,0.00,weatherlink.com 1.10,2013-07-10 10:02:00,
2013-07-10 05:17:00,75.2,72.0,30.00,WSW,244,0.0,-999.0,89,-99.99,,,0.00,weatherlink.com 1.10,2013-07-10 10:17:00,
2013-07-10 05:32:00,75.1,72.0,29.99,WSW,244,0.0,-999.0,90,-99.99,,,0.00,weatherlink.com 1.10,2013-07-10 10:32:00,
2013-07-10 05:47:00,75.0,72.0,30.00,WSW,244,0.0,-999.0,90,-99.99,,,0.00,weatherlink.com 1.10,2013-07-10 10:47:00,
2013-07-10 06:02:00,74.8,72.0,30.00,WSW,244,0.0,-999.0,90,-99.99,,,0.00,weatherlink.com 1.10,2013-07-10 11:02:00,
2013-07-10 06:17:00,74.5,72.0,30.00,WSW,244,0.0,-999.0,90,-99.99,,,0.00,weatherlink.com 1.10,2013-07-10 11:17:00,
2013-07-10 06:32:00,74.5,72.0,30.00,WSW,244,0.0,-999.0,91,-99.99,,,0.00,weatherlink.com 1.10,2013-07-10 11:32:00,
2013-07-10 06:47:00,74.5,72.0,30.00,WSW,244,0.0,-999.0,92,-99.99,,,0.00,weatherlink.com 1.10,2013-07-10 11:47:00,
2013-07-10 07:02:00,74.2,72.0,30.01,WSW,244,0.0,-999.0,92,-99.99,,,0.00,weatherlink.com 1.10,2013-07-10 12:02:00,
2013-07-10 07:17:00,74.2,72.0,30.01,WSW,244,0.0,-999.0,92,-99.99,,,0.00,weatherlink.com 1.10,2013-07-10 12:17:00,
2013-07-10 07:33:00,74.4,72.0,30.02,WSW,244,0.0,-999.0,92,-99.99,,,0.00,weatherlink.com 1.10,2013-07-10 12:33:00,
2013-07-10 07:48:00,74.8,73.0,30.02,WSW,244,0.0,-999.0,93,-99.99,,,0.00,weatherlink.com 1.10,2013-07-10 12:48:00,
2013-07-10 08:03:00,75.2,73.0,30.02,WSW,244,0.0,-999.0,93,-99.99,,,0.00,weatherlink.com 1.10,2013-07-10 13:03:00,
2013-07-10 08:18:00,75.8,74.0,30.01,SW,225,0.0,-999.0,93,-99.99,,,0.00,weatherlink.com 1.10,2013-07-10 13:18:00,
2013-07-10 08:33:00,76.2,74.0,30.02,SSW,196,0.0,-999.0,92,-99.99,,,0.00,weatherlink.com 1.10,2013-07-10 13:33:00,
2013-07-10 08:48:00,77.1,74.0,30.02,SW,222,0.0,-999.0,90,-99.99,,,0.00,weatherlink.com 1.10,2013-07-10 13:48:00,
2013-07-10 09:03:00,78.1,74.0,30.02,West,266,2.0,-999.0,87,-99.99,,,0.00,weatherlink.com 1.10,2013-07-10 14:03:00,
2013-07-10 09:18:00,78.7,74.0,30.02,SSW,203,0.0,-999.0,85,-99.99,,,0.00,weatherlink.com 1.10,2013-07-10 14:18:00,
2013-07-10 09:33:00,79.8,74.0,30.02,SSW,210,0.0,-999.0,83,-99.99,,,0.00,weatherlink.com 1.10,2013-07-10 14:33:00,
2013-07-10 09:48:00,82.0,74.0,30.02,SW,215,1.0,-999.0,77,-99.99,,,0.00,weatherlink.com 1.10,2013-07-10 14:48:00,
2013-07-10 10:03:00,83.1,74.0,30.02,WSW,243,0.0,-999.0,74,-99.99,,,0.00,weatherlink.com 1.10,2013-07-10 15:03:00,
2013-07-10 10:19:00,84.1,74.0,30.02,ENE,59,0.0,-999.0,72,-99.99,,,0.00,weatherlink.com 1.10,2013-07-10 15:19:00,
2013-07-10 10:34:00,86.5,75.0,30.01,West,267,0.0,-999.0,68,-99.99,,,0.00,weatherlink.com 1.10,2013-07-10 15:34:00,
2013-07-10 10:49:00,88.0,74.0,30.01,SSW,208,4.0,-999.0,64,-99.99,,,0.00,weatherlink.com 1.10,2013-07-10 15:49:00,
2013-07-10 11:04:00,89.3,74.0,30.01,SW,216,0.0,-999.0,61,-99.99,,,0.00,weatherlink.com 1.10,2013-07-10 16:04:00,
2013-07-10 11:19:00,90.8,74.0,30.00,NNW,337,0.0,-999.0,58,-99.99,,,0.00,weatherlink.com 1.10,2013-07-10 16:19:00,
2013-07-10 11:34:00,91.4,74.0,30.00,WNW,287,0.0,-999.0,57,-99.99,,,0.00,weatherlink.com 1.10,2013-07-10 16:34:00,
2013-07-10 11:49:00,91.5,73.0,30.00,North,350,0.0,-999.0,55,-99.99,,,0.00,weatherlink.com 1.10,2013-07-10 16:49:00,
2013-07-10 12:04:00,92.7,73.0,30.00,West,275,1.0,-999.0,53,-99.99,,,0.00,weatherlink.com 1.10,2013-07-10 17:04:00,
2013-07-10 12:19:00,93.9,74.0,29.99,WNW,294,0.0,-999.0,53,-99.99,,,0.00,weatherlink.com 1.10,2013-07-10 17:19:00,
2013-07-10 12:35:00,95.0,73.0,29.99,SW,229,0.0,-999.0,49,-99.99,,,0.00,weatherlink.com 1.10,2013-07-10 17:35:00,
2013-07-10 12:50:00,95.5,73.0,29.98,WSW,257,0.0,-999.0,48,-99.99,,,0.00,weatherlink.com 1.10,2013-07-10 17:50:00,
2013-07-10 13:05:00,96.3,72.0,29.98,NE,46,0.0,-999.0,46,-99.99,,,0.00,weatherlink.com 1.10,2013-07-10 18:05:00,
2013-07-10 13:20:00,97.3,72.0,29.97,ENE,62,0.0,-999.0,44,-99.99,,,0.00,weatherlink.com 1.10,2013-07-10 18:20:00,
2013-07-10 13:35:00,97.2,71.0,29.96,South,190,2.0,-999.0,43,-99.99,,,0.00,weatherlink.com 1.10,2013-07-10 18:35:00,
2013-07-10 13:50:00,98.0,73.0,29.95,West,263,0.0,-999.0,45,-99.99,,,0.00,weatherlink.com 1.10,2013-07-10 18:50:00,
2013-07-10 14:06:00,98.3,72.0,29.95,NE,41,0.0,-999.0,43,-99.99,,,0.00,weatherlink.com 1.10,2013-07-10 19:06:00,
2013-07-10 14:21:00,99.1,70.0,29.95,SW,232,0.0,-999.0,39,-99.99,,,0.00,weatherlink.com 1.10,2013-07-10 19:21:00,
2013-07-10 14:36:00,98.6,71.0,29.94,SW,232,1.0,-999.0,41,-99.99,,,0.00,weatherlink.com 1.10,2013-07-10 19:36:00,
2013-07-10 14:51:00,100.1,71.0,29.93,SW,234,3.0,-999.0,39,-99.99,,,0.00,weatherlink.com 1.10,2013-07-10 19:51:00,
2013-07-10 15:06:00,101.9,71.0,29.93,West,269,1.0,-999.0,37,-99.99,,,0.00,weatherlink.com 1.10,2013-07-10 20:06:00,
2013-07-10 15:21:00,101.7,72.0,29.92,West,265,1.0,-999.0,38,-99.99,,,0.00,weatherlink.com 1.10,2013-07-10 20:21:00,
2013-07-10 15:36:00,101.1,70.0,29.92,WSW,238,0.0,-999.0,37,-99.99,,,0.00,weatherlink.com 1.10,2013-07-10 20:36:00,
2013-07-10 15:51:00,102.1,72.0,29.91,SW,227,1.0,-999.0,38,-99.99,,,0.00,weatherlink.com 1.10,2013-07-10 20:51:00,
2013-07-10 16:06:00,101.1,70.0,29.91,ENE,63,0.0,-999.0,37,-99.99,,,0.00,weatherlink.com 1.10,2013-07-10 21:06:00,
2013-07-10 16:21:00,100.1,70.0,29.90,ESE,102,0.0,-999.0,38,-99.99,,,0.00,weatherlink.com 1.10,2013-07-10 21:21:00,
2013-07-10 16:36:00,100.8,70.0,29.89,West,261,0.0,-999.0,37,-99.99,,,0.00,weatherlink.com 1.10,2013-07-10 21:36:00,
2013-07-10 16:51:00,100.5,70.0,29.88,NE,49,0.0,-999.0,37,-99.99,,,0.00,weatherlink.com 1.10,2013-07-10 21:51:00,
2013-07-10 17:06:00,101.5,70.0,29.88,SW,229,0.0,-999.0,36,-99.99,,,0.00,weatherlink.com 1.10,2013-07-10 22:06:00,
2013-07-10 17:22:00,101.3,67.0,29.87,ENE,68,0.0,-999.0,33,-99.99,,,0.00,weatherlink.com 1.10,2013-07-10 22:22:00,
2013-07-10 17:37:00,100.4,68.0,29.86,NNE,16,0.0,-999.0,35,-99.99,,,0.00,weatherlink.com 1.10,2013-07-10 22:37:00,
2013-07-10 17:52:00,99.5,68.0,29.85,West,266,0.0,-999.0,36,-99.99,,,0.00,weatherlink.com 1.10,2013-07-10 22:52:00,
2013-07-10 18:07:00,98.9,68.0,29.84,WNW,283,0.0,-999.0,36,-99.99,,,0.00,weatherlink.com 1.10,2013-07-10 23:07:00,
2013-07-10 18:22:00,98.0,68.0,29.84,NNW,331,0.0,-999.0,37,-99.99,,,0.00,weatherlink.com 1.10,2013-07-10 23:22:00,
2013-07-10 18:37:00,97.6,68.0,29.84,WNW,296,0.0,-999.0,38,-99.99,,,0.00,weatherlink.com 1.10,2013-07-10 23:37:00,
2013-07-10 18:52:00,96.4,71.0,29.84,West,275,0.0,-999.0,44,-99.99,,,0.00,weatherlink.com 1.10,2013-07-10 23:52:00,
2013-07-10 19:07:00,95.6,71.0,29.84,NNE,32,0.0,-999.0,45,-99.99,,,0.00,weatherlink.com 1.10,2013-07-11 00:07:00,
2013-07-10 19:22:00,94.5,71.0,29.84,North,360,0.0,-999.0,46,-99.99,,,0.00,weatherlink.com 1.10,2013-07-11 00:22:00,
2013-07-10 19:37:00,93.5,72.0,29.85,NE,53,0.0,-999.0,49,-99.99,,,0.00,weatherlink.com 1.10,2013-07-11 00:37:00,
2013-07-10 19:52:00,92.3,72.0,29.84,SW,234,0.0,-999.0,51,-99.99,,,0.00,weatherlink.com 1.10,2013-07-11 00:52:00,
2013-07-10 20:07:00,91.5,71.0,29.85,NNW,341,0.0,-999.0,52,-99.99,,,0.00,weatherlink.com 1.10,2013-07-11 01:07:00,
2013-07-10 20:23:00,90.8,71.0,29.85,North,5,0.0,-999.0,53,-99.99,,,0.00,weatherlink.com 1.10,2013-07-11 01:23:00,
2013-07-10 20:38:00,90.1,71.0,29.86,North,5,0.0,-999.0,54,-99.99,,,0.00,weatherlink.com 1.10,2013-07-11 01:38:00,
2013-07-10 20:53:00,89.4,72.0,29.86,NE,42,1.0,-999.0,56,-99.99,,,0.00,weatherlink.com 1.10,2013-07-11 01:53:00,
2013-07-10 21:08:00,88.7,71.0,29.86,NNE,28,0.0,-999.0,57,-99.99,,,0.00,weatherlink.com 1.10,2013-07-11 02:08:00,
2013-07-10 21:23:00,88.1,71.0,29.86,North,5,0.0,-999.0,57,-99.99,,,0.00,weatherlink.com 1.10,2013-07-11 02:23:00,
2013-07-10 21:38:00,87.4,71.0,29.87,North,350,0.0,-999.0,58,-99.99,,,0.00,weatherlink.com 1.10,2013-07-11 02:38:00,
2013-07-10 21:53:00,86.7,70.0,29.88,SW,229,0.0,-999.0,58,-99.99,,,0.00,weatherlink.com 1.10,2013-07-11 02:53:00,
2013-07-10 22:08:00,86.1,70.0,29.88,NE,34,0.0,-999.0,59,-99.99,,,0.00,weatherlink.com 1.10,2013-07-11 03:08:00,
2013-07-10 22:23:00,85.6,70.0,29.89,NNE,30,0.0,-999.0,60,-99.99,,,0.00,weatherlink.com 1.10,2013-07-11 03:23:00,
2013-07-10 22:38:00,85.2,70.0,29.89,NNE,30,0.0,-999.0,61,-99.99,,,0.00,weatherlink.com 1.10,2013-07-11 03:38:00,
2013-07-10 22:53:00,84.8,70.0,29.90,NE,34,0.0,-999.0,61,-99.99,,,0.00,weatherlink.com 1.10,2013-07-11 03:53:00,
2013-07-10 23:08:00,84.2,70.0,29.91,WSW,246,0.0,-999.0,63,-99.99,,,0.00,weatherlink.com 1.10,2013-07-11 04:08:00,
2013-07-10 23:23:00,83.8,70.0,29.91,West,268,0.0,-999.0,64,-99.99,,,0.00,weatherlink.com 1.10,2013-07-11 04:23:00,
2013-07-10 23:39:00,83.4,70.0,29.92,West,268,0.0,-999.0,65,-99.99,,,0.00,weatherlink.com 1.10,2013-07-11 04:39:00,
2013-07-10 23:54:00,82.9,70.0,29.92,North,355,0.0,-999.0,66,-99.99,,,0.00,weatherlink.com 1.10,2013-07-11 04:54:00,